Location: Les Martinières
(47.2667°N, 1.4410°E)
Time: 02:29:19
(UTC+00:00)

ADEOS - Pass Details

Date: 15 May 2026
Orbit: 789 x 792 km, 98.8° (Epoch: 8 June)

Event Time Altitude Azimuth Distance (km) Brightness Sun altitude
Exits shadow 20:25:06 - 169° (S) 2,829 6.0 -9.3°
Reaches altitude 10° 20:26:18 10° 171° (S) 2,352 5.6 -9.4°
Maximum altitude 20:31:30 75° 257° (WSW) 825 3.8 -10.1°
Drops below altitude 10° 20:36:44 10° 342° (NNW) 2,368 7.1 -10.7°
Sets 20:39:05 0° 344° (NNW) 3,301 7.9 -11.0°
